Regional Weather Roundup
Issued by NWS

Home | Current Version | Previous Version | Text Only | Print | Product List | Glossary On
Versions: 1 2 3 4 5 6 7 8 9 10 11 12 13 14 15 16 17 18 19 20 21 22 23 24 25 26 27 28 29 30 31 32 33 34 35 36 37 38 39 40 41 42 43 44 45 46 47 48 49 50
000
ASUS43 KTOP 240808
RWRKS

WEATHER ROUNDUP FOR KANSAS
NATIONAL WEATHER SERVICE GOODLAND KS
300 AM CDT SUN MAY 24 2015

NOTE:  "FAIR" INDICATES FEW OR NO CLOUDS BELOW 12,000 FEET WITH NO
SIGNIFICANT WEATHER AND/OR OBSTRUCTIONS TO VISIBILITY.

KSZ001>006-013>018-027>032-041>047-240900-
NORTHWEST KANSAS

CITY           SKY/WX    TMP DP  RH WIND       PRES   REMARKS
GOODLAND       LGT RAIN  51  50  96 VRB7      29.93F
HAYS           CLOUDY    57  52  82 SE7       29.89F
HILL CITY      CLOUDY    58  56  93 SE3       29.91F
RUSSELL        CLOUDY    57  57 100 CALM      29.88F
$$

KSZ061>065-074>080-084>089-240900-
SOUTHWEST KANSAS

CITY           SKY/WX    TMP DP  RH WIND       PRES   REMARKS
DODGE CITY     CLOUDY    57  55  93 SE10      29.89F FOG
ELKHART          N/A     57  56  97 SW2         N/A
GARDEN CITY    CLOUDY    55  55 100 CALM      29.90S FOG
GREAT BEND     CLOUDY    57  54  88 E3        29.89F
LIBERAL        CLOUDY    59  55  88 SE3       29.89F
PRATT          DRIZZLE   55  55 100 E3        29.90F
$$

KSZ066>073-081>083-090>101-240900-
SOUTHEAST KANSAS

CITY           SKY/WX    TMP DP  RH WIND       PRES   REMARKS
CHANUTE        CLOUDY    64  64 100 S8        29.87F
COFFEYVILLE    CLOUDY    64  63  96 S7        29.89S
HUTCHINSON     CLOUDY    59  56  89 W7        29.88F
MEDICINE LODGE   N/A     61  59  93 CALM      29.87R
NEWTON         CLOUDY    59  55  88 CALM      29.88F
PARSONS        CLOUDY    64  64 100 S6        29.90S
WICHITA INTL   CLOUDY    60  59  96 W7        29.85F
WICHITA JABRA  CLOUDY    60  59  96 CALM      29.85F
WICHITA MCCONL CLOUDY    60  59  96 W3        29.86F
WINFIELD       CLOUDY    61  60  97 S16G23    29.86F
$$

KSZ007>012-019>026-033>040-048>060-102>105-240900-
NORTHEAST KANSAS

CITY           SKY/WX    TMP DP  RH WIND       PRES   REMARKS
CONCORDIA      LGT RAIN  60  59  96 CALM      29.88F FOG
EMPORIA        CLOUDY    62  61  96 CALM      29.87F
LAWRENCE       CLOUDY    64  61  90 SE12G23   29.90F
MANHATTAN      LGT RAIN  63  62  97 CALM      29.85F FOG
MARYSVILLE     DRIZZLE   61  61 100 E6        29.87F
OLATHE IND     CLOUDY    63  61  93 SE18G25   29.90F
OLATHE EXE     LGT RAIN  63  61  93 SE15G26   29.90F
SALINA         CLOUDY    61  59  93 NW6       29.87F
TOPEKA BILLARD CLOUDY    65  63  93 SE7       29.88F
TOPEKA FORBES  CLOUDY    65  62  90 SE9       29.88F
$$



USA.gov is the U.S. government's official web portal to all federal, state and local government web resources and services.